Location: Winterland
(47.1574°N, 55.3067°W)
Time: 14:27:03
(UTC+00:00)

Tiangong - Pass Details

Date: 24 August 2022
Orbit: 377 x 382 km, 41.5° (Epoch: 27 September)

Event Time Altitude Azimuth Distance (km) Brightness Sun altitude
Rises 23:17:32 0° 262° (W) 2,243 2.8 -7.4°
Reaches altitude 10° 23:19:52 10° 247° (WSW) 1,388 1.3 -7.7°
Maximum altitude 23:22:23 22° 193° (SSW) 873 -0.5 -8.1°
Enters shadow 23:24:51 10° 139° (SE) 1,367 0.1 -8.5°
